Flight Track Log - Related Links

Times and Time Zones

All times are in EDT time to prevent confusion due to time zone crossing. See the ASQ4504 flight status page for this flight to view local times or setup timezone preferences in your user account.

Time Position Orientation Groundspeed Altitude Reporting Facility
EDT Latitude Longitude Course Direction KTS MPH feet Rate Location/Type
Sun 12:02:37 AM 32.1467 -114.7128 302° West 387 445 36,000  Level Los Angeles Center
Sun 12:03:38 AM 32.2042 -114.8211 302° West 389 448 36,000  Level Los Angeles Center
Sun 12:04:40 AM 32.2614 -114.9294 302° West 388 447 36,000  Level Los Angeles Center
Sun 12:05:41 AM 32.3211 -115.0372 303° West 390 449 36,000  Level Los Angeles Center
Sun 12:06:42 AM 32.3911 -115.1664 303° West 389 448 36,000  Level Los Angeles Center
Sun 12:07:43 AM 32.4456 -115.2697 302° West 389 448 36,000  Level Los Angeles Center
Sun 12:08:44 AM 32.5036 -115.3772 303° West 388 447 36,000  Level Los Angeles Center
Sun 12:09:45 AM 32.5625 -115.4844 303° West 389 448 36,000  Level Los Angeles Center
Sun 12:10:46 AM 32.6194 -115.5925 302° West 388 447 36,000  Level Los Angeles Center
Sun 12:11:48 AM 32.6772 -115.7017 302° West 390 449 36,000  Level Los Angeles Center
Sun 12:12:48 AM 32.7347 -115.8111 302° West 391 450 36,000 -298 Level Los Angeles Center
Sun 12:13:49 AM 32.8047 -115.9411 303° West 392 451 35,400 -1,180 Descending Los Angeles Center
Sun 12:14:50 AM 32.8614 -116.0489 302° West 386 444 33,600 -1,869 Descending Los Angeles Center
Sun 12:15:51 AM 32.9181 -116.1561 302° West 385 443 31,600 -1,967 Descending Los Angeles Center
Sun 12:16:52 AM 32.9753 -116.2656 302° West 400 460 29,600 -2,066 Descending Los Angeles Center
Sun 12:17:53 AM 33.0322 -116.3828 300° West 408 470 27,400 -2,311 Descending Los Angeles Center
Sun 12:18:54 AM 33.0933 -116.4919 304° West 404 465 24,900 -1,967 Descending Los Angeles Center
Sun 12:19:55 AM 33.1436 -116.6089 297° West 408 470 23,400 -2,213 Descending Los Angeles Center
Sun 12:20:56 AM 33.1631 -116.7656 278° West 408 470 20,400 -2,656 Descending Los Angeles Center
Sun 12:21:57 AM 33.1792 -116.8953 278° West 400 460 18,000 -2,213 Descending Los Angeles Center
Sun 12:22:58 AM 33.1931 -117.0200 278° West 387 445 15,900 -1,967 Descending Los Angeles Center
Sun 12:23:59 AM 33.2083 -117.1422 279° West 377 434 14,000 -1,851 Descending Los Angeles Center
Sun 12:24:32 AM 33.2167 -117.2167 278° West 364 419 13,000 -1,226 Descending Southern California TRACON
Sun 12:25:32 AM 33.2333 -117.3333 280° West 410 472 12,100 -450 Descending Southern California TRACON
Sun 12:26:32 AM 33.2500 -117.4500 280° West 368 423 12,100 -50 Level Southern California TRACON
Sun 12:27:32 AM 33.3167 -117.5500 309° West 360 414 12,000 -50 Descending Southern California TRACON
Sun 12:28:33 AM 33.3833 -117.6167 320° Northwest 351 404 12,000 66 Level Southern California TRACON
Sun 12:29:03 AM 33.4169 -117.6575 315° West 354 407 12,100 -500 Climbing Los Angeles Center
Sun 12:29:33 AM 33.4500 -117.7000 313° West 341 392 11,500 -1,313 Descending Southern California TRACON
Sun 12:30:39 AM 33.5167 -117.7667 320° Northwest 295 339 10,000 -1,333 Descending Southern California TRACON
Sun 12:31:39 AM 33.5833 -117.8333 320° Northwest 285 328 8,700 -1,357 Descending Southern California TRACON
Sun 12:32:34 AM 33.6333 -117.9000 312° West 289 333 7,400 -887 Descending Southern California TRACON
Sun 12:33:34 AM 33.7000 -117.9667 320° Northwest 282 325 7,000 -211 Descending Southern California TRACON
Sun 12:34:28 AM 33.7500 -118.0167 320° Northwest 243 280 7,000  Level Southern California TRACON
Sun 12:35:34 AM 33.8000 -118.0500 331° Northwest 233 268 7,000 -476 Level Southern California TRACON
Sun 12:36:34 AM 33.8667 -118.0667 348° North 200 230 6,000 -1,100 Descending Southern California TRACON
Sun 12:37:34 AM 33.9167 -118.0833 345° North 199 229 4,800 -900 Descending Southern California TRACON
Sun 12:38:34 AM 33.9333 -118.1333 292° West 194 223 4,200 -612 Descending Southern California TRACON
Sun 12:39:12 AM 33.9483 -118.1656 299° West 192 221 3,800 -909 Descending Los Angeles Center
Sun 12:40:13 AM 33.9556 -118.2200 279° West 176 203 2,700 -893 Descending Los Angeles Center
Sun 12:41:13 AM 33.9492 -118.2692 261° West 160 184 2,000 -744 Descending Los Angeles Center
Sun 12:42:14 AM 33.9456 -118.3142 264° West 146 168 1,200 -738 Descending Los Angeles Center
Sun 12:43:15 AM 33.9406 -118.3594 262° West 141 162 500 -541 Descending Los Angeles Center
Sun 12:44:16 AM 33.9356 -118.4089 263° West 137 158 100 -393 Descending Los Angeles Center
Sun 12:46:00 AM 33.9333 -118.4000 296° West  Level FlightAware Approximate

Login

Don't have an account? Register now (free) for customized features, flight alerts, and more!